1310169634670,17.0894
1310169694670,17.0760
1310169754670,17.0563
1310169814670,17.0408
1310169874670,17.0738
1310169934670,17.0936
1310169994670,17.0688
1310170054670,17.1093
1310170114670,17.1604
1310170174670,17.1073
1310170234670,17.1575
1310170294670,17.0825
1310170354670,17.1591
1310170414670,17.1350
1310170474670,17.2264
1310170534670,17.2393
1310170594670,17.1879
1310170654670,17.2104
1310170714670,17.2633
1310170774670,17.2327
1310170834670,17.2350
1310170894670,17.2406
1310170954670,17.2418
1310171014670,17.2152
1310171074670,17.2335
1310171134670,17.3290
1310171194670,17.1670
1310171254670,17.2875
1310171314670,17.2486
1310171374670,17.1865
1310171434670,17.2033
1310171494670,17.1785
1310171554670,17.1627
1310171614670,17.1407
1310171674670,17.1591
1310171734670,17.1476
1310171794670,17.1418
1310171854670,17.1254
1310171914670,17.1691
1310171974670,17.1562
1310172034670,17.0432
1310172094670,17.0664
1310172154670,17.0473
1310172214670,17.0721
1310172274670,17.0699
1310172334670,17.0328
1310172394670,17.0465
1310172454670,17.0522
1310172514670,17.0662
1310172574670,17.0183
1310172634670,17.0228
1310172694670,17.0229
1310172754670,17.0387
1310172814670,17.0852
1310172874670,17.0691
1310172934670,17.0268
1310172994670,17.0023
1310173054670,17.0528
1310173114670,17.0325
1310173174670,17.0217
1310173234680,17.0431
1310173294680,17.0586
1310173354680,17.0350
1310173414680,17.0766
1310173474680,17.0210
1310173534680,17.0280
1310173594680,17.0185
1310173654680,17.0214
1310173714680,17.0495
1310173774680,17.0883
1310173834680,17.0577
1310173894680,17.0795
1310173954680,17.0497
1310174014680,17.0584
1310174074680,17.0845
1310174134680,17.0899
1310174194680,17.0876
1310174254680,17.0868
1310174314680,17.1215
1310174374680,17.0848
1310174434680,17.0919
1310174494680,17.1237
1310174554680,17.1056
1310174614680,17.0718
1310174674680,17.0687
1310174734680,17.0946
1310174794680,17.0971
1310174854680,17.0872
1310174914680,17.1288
1310174974680,17.0833
1310175034680,17.1008
1310175094680,17.1437
1310175154680,17.0864
1310175214680,17.1063
1310175274680,17.1027
1310175334680,17.1208
1310175394680,17.1215
1310175454680,17.1177
1310175514680,17.1076
1310175574680,17.0751
1310175634680,17.0527
1310175694680,17.0794
1310175754680,17.0432
1310175814680,17.0553
1310175874680,17.0843
1310175934680,17.0663
1310175994680,17.0464
1310176054680,17.1025
1310176114680,17.0350
1310176174680,17.0796
1310176234680,17.1002
1310176294680,17.1244
1310176354680,17.1324
1310176414680,17.1265
1310176474680,17.1191
1310176534680,17.1704
1310176594680,17.1479
1310176654680,17.1968
1310176714680,17.1343
1310176774680,17.1773
1310176834689,17.1586
1310176894689,17.2343
1310176954689,17.1551
1310177014689,17.2047
1310177074689,17.2042
1310177134689,17.1762
1310177194689,17.1653
1310177254689,17.1904
1310177314689,17.2120
1310177374689,17.2437
1310177434689,17.1763
1310177494689,17.1417
1310177554689,17.1534
1310177614689,17.1906
1310177674689,17.0942
1310177734689,17.1622
1310177794689,17.0989
1310177854689,17.1179
1310177914689,17.1459
1310177974689,17.1425
1310178034689,17.1517
1310178094689,17.1394
1310178154689,17.1663
1310178214689,17.1440
1310178274689,17.1010
1310178334689,17.1296
1310178394689,17.1649
1310178454689,17.1091
1310178514689,17.0843
1310178574689,17.0812
1310178634689,17.1146
1310178694689,17.1449
1310178754689,17.1428
1310178814689,17.1246
1310178874689,17.0684
1310178934689,17.1002
1310178994689,17.1106
1310179054689,17.0351
1310179114689,17.0988
1310179174689,17.0668
1310179234689,17.0680
1310179294689,17.0757
1310179354689,17.0745
1310179414689,17.0823
1310179474689,17.0663
1310179534689,17.1370
1310179594689,17.0277
1310179654689,17.0800
1310179714689,17.0700
1310179774689,17.0524
1310179834689,17.0958
1310179894689,17.0121
1310179954689,17.1015
1310180014689,17.1201
1310180074689,17.0420
1310180134689,17.0217
1310180194689,17.0506
1310180254689,17.0313
1310180314689,16.9994
1310180374689,17.0804
1310180434699,17.0700
1310180494699,17.0411
1310180554699,17.0186
1310180614699,17.0458
1310180674699,17.0759
1310180734699,16.9919
1310180794699,17.0145
1310180854699,17.0367
1310180914699,17.0037
1310180974699,17.0365
1310181034699,16.9844
1310181094699,17.0351
1310181154699,17.0541
1310181214699,17.0713
1310181274699,17.0695
1310181334699,17.0468
1310181394699,17.0487
1310181454699,17.0560
1310181514699,17.0635
1310181574699,17.0497
1310181634699,17.0277
1310181694699,17.0208
1310181754699,17.0065
1310181814699,17.0070
1310181874699,17.0143
1310181934699,16.9966
1310181994699,17.0203
1310182054699,16.9906
1310182114699,17.0033
1310182174699,16.9798
1310182234699,17.0281
1310182294699,17.0112
1310182354699,17.0401
1310182414699,17.0341
1310182474699,17.0312
1310182534699,17.0203
1310182594699,17.0363
1310182654699,17.0278
1310182714699,17.0441
1310182774699,17.0736
1310182834699,17.0207
1310182894699,16.9916
1310182954699,17.0190
1310183014699,17.0578
1310183074699,17.0545
1310183134699,17.0384
1310183194699,17.0516
1310183254699,17.0712
1310183314699,17.0489
1310183374699,17.0453
1310183434699,17.0152
1310183494699,17.0177
1310183554699,17.0289
1310183614699,17.1804
1310183674699,17.0605
1310183734699,17.0196
1310183794699,17.0179
1310183854699,17.0179
1310183914699,17.0245
1310183974699,17.0163
1310184034708,17.0132
1310184094708,17.0207
1310184154708,17.0584
1310184214708,17.0010
1310184274708,17.0614
1310184334708,17.0419
1310184394708,17.0580
1310184454708,17.0326
1310184514708,17.0488
1310184574708,17.0811
1310184634708,17.0460
1310184694708,17.0297
1310184754708,17.0163
1310184814708,17.0064
1310184874708,17.0510
1310184934708,17.0545
1310184994708,17.0682
1310185054708,17.0227
1310185114708,17.0361
1310185174708,17.0459
1310185234708,17.0183
1310185294708,17.0031
1310185354708,17.0383
1310185414708,17.0192
1310185474708,16.9810
1310185534708,16.9990
1310185594708,17.0392
1310185654708,17.0160
1310185714708,17.0626
1310185774708,16.9970
1310185834708,17.0559
1310185894708,17.0101
1310185954708,16.9990
1310186014708,17.0196
1310186074708,17.0215
1310186134708,17.0681
1310186194708,17.0205
1310186254708,16.9814
1310186314708,16.9761
1310186374708,16.9661
1310186434708,16.9334
1310186494708,16.9851
1310186554708,16.9688
1310186614708,17.0009
1310186674708,17.0202
1310186734708,16.9907
1310186794708,17.0186
1310186854708,17.0861
1310186914708,16.9299
1310186974708,16.9654
1310187034708,16.9537
1310187094708,16.9905
1310187154708,16.9374
1310187214708,17.0265
1310187274708,16.9574
1310187334708,16.9729
1310187394708,16.9436
1310187454708,16.9316
1310187514708,16.9930
1310187574708,16.9401
1310187634717,16.9617
1310187694717,16.9033
1310187754717,16.9824
1310187814717,16.8870
1310187874717,16.9000
1310187934717,16.9219
1310187994717,16.9419
1310188054717,16.9345
1310188114717,16.8715
1310188174717,16.9426
1310188234717,16.9829
1310188294717,16.9184
1310188354717,16.9255
1310188414717,16.9110
1310188474717,16.8984
1310188534717,16.9509
1310188594717,16.9521
1310188654717,16.9772
1310188714717,16.9366
1310188774717,16.8973
1310188834717,16.9212
1310188894717,16.9185
1310188954717,16.9239
1310189014717,16.9847
1310189074717,16.9215
1310189134717,17.0423
1310189194717,16.9882
1310189254717,16.9984
1310189314717,16.9734
1310189374717,17.0068
1310189434717,16.9949
1310189494717,16.9916
1310189554717,17.0564
1310189614717,17.0115
1310189674717,16.9981
1310189734717,17.0071
1310189794717,17.0197
1310189854717,17.0437
1310189914717,17.0315
1310189974717,17.0136
1310190034717,17.0955
1310190094717,17.0577
1310190154717,17.0171
1310190214717,17.0040
1310190274717,17.0321
1310190334717,17.0238
1310190394717,17.0238
1310190454717,17.0144
1310190514717,17.0034
1310190574717,17.0042
1310190634717,16.9808
1310190694717,16.9944
1310190754717,17.0281
1310190814717,16.9255
1310190874717,16.9609
1310190934717,17.0010
1310190994717,16.9453
1310191054717,16.9259
1310191114717,16.8968
1310191174717,16.9278
1310191234726,16.9389
1310191294726,16.9298
1310191354726,16.9538
1310191414726,16.9499
1310191474726,16.9714
1310191534726,16.9754
1310191594726,16.9315
1310191654726,16.9720
1310191714726,16.9367
1310191774726,16.9775
1310191834726,16.9906
1310191894726,16.9812
1310191954726,16.9335
1310192014726,16.9766
1310192074726,16.9719
1310192134726,16.9641
1310192194726,16.9055
1310192254726,16.8913
1310192314726,16.9589
1310192374726,16.9386
1310192434726,16.9298
1310192494726,16.9384
1310192554726,16.9121
1310192614726,16.9589
1310192674726,16.9419
1310192734726,16.9275
1310192794726,16.9189
1310192854726,16.9148
1310192914726,16.9457
1310192974726,16.9160
1310193034726,16.9235
1310193094726,16.9331
1310193154726,16.8763
1310193214726,16.9462
1310193274726,16.9763
1310193334726,16.9741
1310193394726,16.9638
1310193454726,16.9629
1310193514726,16.9860
1310193574726,17.0148
1310193634726,17.0061
1310193694726,16.9418
1310193754726,16.9305
1310193814726,16.9682
1310193874726,16.9464
1310193934726,16.9447
1310193994726,16.9490
1310194054726,16.8970
1310194114726,16.9510
1310194174726,16.9456
1310194234726,16.9643
1310194294726,16.9321
1310194354726,16.9430
1310194414726,16.9368
1310194474726,16.9344
1310194534726,16.9872
1310194594726,16.9141
1310194654726,16.9097
1310194714726,16.9643
1310194774726,16.9337
1310194834735,16.9392
1310194894735,16.9959
1310194954735,16.9261
1310195014735,16.9493
1310195074735,16.9219
1310195134735,16.9443
1310195194735,16.9570
1310195254735,16.9141
1310195314735,16.9302
1310195374735,16.9613
1310195434735,16.9286
1310195494735,16.9502
1310195554735,16.9740
1310195614735,16.9209
1310195674735,16.9165
1310195734735,16.9993
1310195794735,16.9359
1310195854735,16.9764
1310195914735,16.9146
1310195974735,16.9098
1310196034735,16.9584
1310196094735,16.9667
1310196154735,16.9571
1310196214735,16.9531
1310196274735,16.8862
1310196334735,16.9278
1310196394735,16.9144
1310196454735,16.9142
1310196514735,16.8743
1310196574735,16.9239
1310196634735,16.9172
1310196694735,16.9228
1310196754735,16.8948
1310196814735,16.9391
1310196874735,16.9468
1310196934735,16.9228
1310196994735,16.9304
1310197054735,16.9225
1310197114735,16.9750
1310197174735,16.9536
1310197234735,16.9678
1310197294735,17.0004
1310197354735,16.9433
1310197414735,16.9633
1310197474735,16.9523
1310197534735,16.9324
1310197594735,16.9718
1310197654735,16.9085
1310197714735,16.9715
1310197774735,16.9894
1310197834735,16.9734
1310197894735,16.9806
1310197954735,16.9507
1310198014735,17.0515
1310198074735,17.0046
1310198134735,16.9924
1310198194735,16.9735
1310198254735,17.0497
1310198314735,17.0154
1310198374735,17.0763
1310198434744,16.9685
1310198494744,17.0150
1310198554744,17.0476
1310198614744,17.0368
1310198674744,17.0232
1310198734744,17.0906
1310198794744,17.0445
1310198854744,17.0430
1310198914744,17.0248
1310198974744,17.0711
1310199034744,17.0098
1310199094744,17.0526
1310199154744,17.0143
1310199214744,17.0709
1310199274744,17.0430
1310199334744,17.0935
1310199394744,17.0167
1310199454744,16.9886
1310199514744,17.0024
1310199574744,17.0050
1310199634744,17.0052
1310199694744,17.0409
1310199754744,17.0173
1310199814744,17.0050
1310199874744,17.0301
1310199934744,16.9612
1310199994744,17.0689
1310200054744,16.9641
1310200114744,17.0231
1310200174744,17.0043
1310200234744,17.0337
1310200294744,17.0364
1310200354744,17.0792
1310200414744,17.0991
1310200474744,17.0634
1310200534744,17.0538
1310200594744,17.0830
1310200654744,17.1110
1310200714744,17.0719
1310200774744,17.0769
1310200834744,17.1091
1310200894744,17.0876
1310200954744,17.0732
1310201014744,17.0029
1310201074744,17.0442
1310201134744,17.0638
1310201194744,17.0143
1310201254744,17.0163
1310201314744,17.0648
1310201374744,17.0301
1310201434744,17.0144
1310201494744,17.0527
1310201554744,17.0219
1310201614744,17.0318
1310201674744,16.9876
1310201734744,17.0480
1310201794744,16.9989
1310201854744,16.9809
1310201914744,17.0471
1310201974744,17.0015
1310202034753,17.0292
1310202094753,17.0103
1310202154753,17.0093
1310202214753,17.0508
1310202274753,17.0240
1310202334753,17.1061
1310202394753,16.9995
1310202454753,17.0238
1310202514753,16.9867
1310202574753,17.0030
1310202634753,16.9932
1310202694753,16.9742
1310202754753,16.9687
1310202814753,16.9745
1310202874753,17.0118
1310202934753,16.9708
1310202994753,17.0121
1310203054753,17.0478
1310203114753,17.0021
1310203174753,17.0919
1310203234753,17.0034
1310203294753,16.9954
1310203354753,16.9991
1310203414753,16.9388
1310203474753,17.0568
1310203534753,17.0420
1310203594753,17.0321
1310203654753,17.0100
1310203714753,16.9952
1310203774753,16.9919
1310203834753,16.9547
1310203894753,17.0307
1310203954753,17.0285
1310204014753,16.9652
1310204074753,17.0071
1310204134753,16.9630
1310204194753,16.9517
1310204254753,16.9519
1310204314753,17.0060
1310204374753,17.0013
1310204434753,17.0107
1310204494753,17.0028
1310204554753,17.0214
1310204614753,17.0566
1310204674753,16.9735
1310204734753,16.9956
1310204794753,17.0271
1310204854753,17.0291
1310204914753,17.0202
1310204974753,17.0704
1310205034753,17.0799
1310205094753,17.0584
1310205154753,17.0249
1310205214753,17.0414
1310205274753,17.0403
1310205334753,17.0196
1310205394753,17.0991
1310205454753,17.0068
1310205514753,17.0393
1310205574753,17.0421
1310205634762,17.0591
1310205694763,17.0146
1310205754763,17.0414
1310205814763,17.0941
1310205874763,17.0754
1310205934763,17.0374
1310205994763,17.0310
1310206054763,17.0495
1310206114763,17.0102
1310206174763,17.0399
1310206234763,17.0641
1310206294763,17.0458
1310206354763,17.0418
1310206414763,17.0143
1310206474763,17.0369
1310206534763,17.0026
1310206594763,17.0297
1310206654763,17.0202
1310206714763,17.0599
1310206774762,17.1000
1310206834762,17.0466
1310206894762,17.0123
1310206954762,17.0055
1310207014763,16.9732
1310207074763,16.9890
1310207134763,17.0467
1310207194763,16.9826
1310207254763,16.9853
1310207314763,17.0062
1310207374763,17.0363
1310207434763,16.9613
1310207494763,17.0621
1310207554763,16.9659
1310207614763,16.9913
1310207674763,17.0064
1310207734763,17.0386
1310207794763,17.0226
1310207854763,16.9636
1310207914763,16.9975
1310207974763,16.9588
1310208034763,16.9108
1310208094762,16.9628
1310208154762,16.9620
1310208214762,16.9606
1310208274762,16.9424
1310208334762,16.9259
1310208394763,16.9454
1310208454763,16.9481
1310208514763,16.9842
1310208574763,16.9877
1310208634763,17.0174
1310208694763,16.9697
1310208754763,16.9644
1310208814763,16.9889
1310208874763,16.9766
1310208934763,16.9361
1310208994763,16.9755
1310209054763,16.9985
1310209114763,16.9781
1310209174763,16.9824
1310209234772,16.9952
1310209294772,17.0416
1310209354772,17.0221
1310209414772,17.0276
1310209474772,16.9967
1310209534772,16.9934
1310209594772,17.0067
1310209654772,16.9580
1310209714772,17.0034
1310209774772,17.0076
1310209834772,16.9771
1310209894772,17.0066
1310209954772,16.9965
1310210014772,16.9569
1310210074772,16.9806
1310210134772,16.9696
1310210194772,16.9455
1310210254772,16.9574
1310210314772,16.9629
1310210374772,16.9596
1310210434772,16.9837
1310210494772,17.0456
1310210554772,16.9632
1310210614772,16.9860
1310210674772,16.9715
1310210734772,16.9760
1310210794772,16.9872
1310210854772,17.0155
1310210914772,17.0030
1310210974772,16.9529
1310211034772,16.9878
1310211094772,16.9657
1310211154772,16.9670
1310211214772,16.9464
1310211274772,16.9731
1310211334772,16.9515
1310211394772,16.9139
1310211454772,16.9563
1310211514772,16.9683
1310211574772,17.0167
1310211634772,16.9789
1310211694772,16.9611
1310211754772,16.9235
1310211814772,16.9457
1310211874772,16.9936
1310211934772,16.9806
1310211994772,16.9581
1310212054772,16.9971
1310212114772,16.9371
1310212174772,16.9896
1310212234772,16.9431
1310212294772,16.9538
1310212354772,16.9127
1310212414772,16.9596
1310212474772,16.9849
1310212534772,17.0021
1310212594772,16.9770
1310212654772,17.0513
1310212714772,16.9878
1310212774772,16.9821
1310212834781,16.9837
1310212894781,16.9319
1310212954781,17.0126
1310213014781,16.9610
1310213074781,16.9206
1310213134781,17.0057
1310213194781,17.0086
1310213254781,16.9653
1310213314781,16.9920
1310213374781,16.9157
1310213434781,16.9566
1310213494781,17.0322
1310213554781,16.9916
1310213614781,16.9709
1310213674781,16.9490
1310213734781,17.0050
1310213794781,17.0047
1310213854781,16.9675
1310213914781,17.0110
1310213974781,17.0080
1310214034781,17.0541
1310214094781,17.0978
1310214154781,17.0505
1310214214781,17.0408
1310214274781,16.9712
1310214334781,17.0452
1310214394781,17.0428
1310214454781,17.0207
1310214514781,17.0306
1310214574781,16.9749
1310214634781,17.0344
1310214694781,16.9960
1310214754781,17.0144
1310214814781,16.9937
1310214874781,17.0097
1310214934781,17.0186
1310214994781,17.0125
1310215054781,17.0679
1310215114781,16.9892
1310215174781,17.0448
1310215234781,17.0027
1310215294781,17.0504
1310215354781,17.0088
1310215414781,16.9951
1310215474781,17.0140
1310215534781,17.0113
1310215594781,17.0478
1310215654781,17.0026
1310215714781,16.9956
1310215774781,17.0174
1310215834781,17.0011
1310215894781,16.9887
1310215954781,17.0605
1310216014781,17.0155
1310216074781,17.0001
1310216134781,16.9906
1310216194781,17.0032
1310216254781,17.0089
1310216314781,16.9633
1310216374781,17.0194
1310216434790,16.9820
1310216494790,17.0126
1310216554790,16.9889
1310216614790,17.0282
1310216674790,16.9956
1310216734790,16.9676
1310216794790,16.9830
1310216854790,17.0285
1310216914790,16.9887
1310216974790,17.0386
1310217034790,17.0299
1310217094790,16.9463
1310217154790,17.0028
1310217214790,16.9670
1310217274790,16.9389
1310217334790,16.9893
1310217394790,17.0201
1310217454790,16.9855
1310217514790,16.9940
1310217574790,16.9957
1310217634790,16.9579
1310217694790,16.9275
1310217754790,16.9597
1310217814790,16.9730
1310217874790,16.9798
1310217934790,16.9750
1310217994790,16.9826
1310218054790,16.9283
1310218114790,16.9734
1310218174790,16.9530
1310218234790,16.9590
1310218294790,16.8647
1310218354790,16.9651
1310218414790,16.9824
1310218474790,16.9479
1310218534790,16.9894
1310218594790,17.0377
1310218654790,17.0166
1310218714790,17.0093
1310218774790,17.0382
1310218834790,17.0396
1310218894790,17.0302
1310218954790,17.0519
1310219014790,17.0702
1310219074790,17.0379
1310219134790,16.9911
1310219194790,16.9643
1310219254790,16.9778
1310219314790,17.0521
1310219374790,17.0056
1310219434790,17.0028
1310219494790,17.0323
1310219554790,17.0322
1310219614790,17.0298
1310219674790,17.0451
1310219734790,17.0203
1310219794790,17.0535
1310219854790,17.0401
1310219914790,17.0552
1310219974790,17.0486
1310220034799,17.0111
1310220094799,17.0244
1310220154799,17.0611
1310220214799,17.0216
1310220274799,17.0259
1310220334799,17.0096
1310220394799,17.0682
1310220454799,17.0565
1310220514799,17.0279
1310220574799,17.0112
1310220634799,17.0426
1310220694799,17.0077
1310220754799,17.0094
1310220814799,17.0050
1310220874799,17.0356
1310220934799,16.9775
1310220994799,17.0121
1310221054799,17.0078
1310221114799,17.0194
1310221174799,17.0314
1310221234799,17.0093
1310221294799,16.9974
1310221354799,17.0236
1310221414799,17.0279
1310221474799,17.0067
1310221534799,17.0232
1310221594799,16.9808
1310221654799,17.0047
1310221714799,17.0079
1310221774799,17.0123
1310221834799,16.9988
1310221894799,16.9513
1310221954799,16.9106
1310222014799,16.9962
1310222074799,16.9800
1310222134799,16.9706
1310222194799,16.9982
1310222254799,17.0076
1310222314799,16.9656
1310222374799,16.9847
1310222434799,16.9652
1310222494799,17.0077
1310222554799,16.9970
1310222614799,17.0358
1310222674799,16.9662
1310222734799,16.9661
1310222794799,16.9658
1310222854799,17.0206
1310222914799,16.9257
1310222974799,16.9501
1310223034799,16.9812
1310223094799,16.9161
1310223154799,17.0554
1310223214799,16.9919
1310223274799,16.9624
1310223334799,16.9738
1310223394799,16.9721
1310223454799,17.0083
1310223514799,16.9798
1310223574799,16.9933
1310223634809,16.9699
1310223694809,16.9975
1310223754809,16.9849
1310223814809,16.9943
1310223874809,16.9741
1310223934809,16.9403
1310223994809,16.9600
1310224054809,16.9601
1310224114809,16.9808
1310224174809,16.9511
1310224234809,16.9317
1310224294809,16.9701
1310224354809,16.9489
1310224414809,16.9569
1310224474809,16.9382
1310224534809,16.9865
1310224594809,16.9520
1310224654809,16.9718
1310224714809,16.9333
1310224774809,16.9415
1310224834809,16.9849
1310224894809,17.0146
1310224954809,16.9856
1310225014809,16.9621
1310225074809,16.9693
1310225134809,16.9878
1310225194809,16.9564
1310225254809,16.9870
1310225314809,17.1011
1310225374809,16.9819
1310225434809,17.0240
1310225494809,17.0231
1310225554809,17.0124
1310225614809,16.9926
1310225674809,17.0246
1310225734809,17.0188
1310225794809,17.0534
1310225854809,17.0375
1310225914809,17.0883
1310225974809,17.0442
1310226034809,17.0134
1310226094809,17.0325
1310226154809,16.9870
1310226214809,16.9843
1310226274809,17.0185
1310226334809,17.0361
1310226394809,17.0506
1310226454809,17.0663
1310226514809,17.0265
1310226574809,16.9897
1310226634809,17.0041
1310226694809,17.0048
1310226754809,17.0297
1310226814809,17.0149
1310226874809,17.0009
1310226934809,17.0692
1310226994809,17.0003
1310227054809,16.9340
1310227114809,16.9786
1310227174809,16.9823
1310227234819,16.9700
1310227294819,16.9487
1310227354819,16.9504
1310227414819,16.9826
1310227474819,17.0207
1310227534819,16.9965
1310227594819,16.9883
1310227654819,16.9958
1310227714819,17.0387
1310227774819,17.0023
1310227834819,16.9932
1310227894819,16.9690
1310227954819,17.0210
1310228014819,16.9816
1310228074819,16.9702
1310228134819,16.9632
1310228194819,16.9962
1310228254819,16.9870
1310228314819,16.9509
1310228374819,16.9768
1310228434819,16.9677
1310228494819,16.9999
1310228554819,16.9796
1310228614819,17.0382
1310228674819,17.0143
1310228734819,16.9962
1310228794819,17.0123
1310228854819,16.9777
1310228914819,16.9627
1310228974819,17.0150
1310229034819,16.9735
1310229094819,17.0041
1310229154819,16.9775
1310229214819,16.9881
1310229274819,16.9817
1310229334819,16.9927
1310229394819,17.0000
1310229454819,17.0177
1310229514819,17.0381
1310229574819,17.0142
1310229634819,17.0076
1310229694819,16.9900
1310229754819,17.0500
1310229814819,17.0476
1310229874819,17.0442
1310229934819,17.0273
1310229994819,17.0159
1310230054819,17.0129
1310230114819,17.0261
1310230174819,17.0510
1310230234819,17.0638
1310230294819,17.0762
1310230354819,17.0615
1310230414819,17.0596
1310230474819,17.0177
1310230534819,17.0410
1310230594819,17.0185
1310230654819,17.0866
1310230714819,17.0666
1310230774819,17.0394
1310230834829,17.0738
1310230894829,17.0537
1310230954829,17.0644
1310231014829,17.0619
1310231074829,17.0848
1310231134829,17.0588
1310231194829,17.0393
1310231254829,17.0492
1310231314829,17.0582
1310231374829,17.0268
1310231434829,17.0180
1310231494829,17.0222
1310231554829,17.0580
1310231614829,16.9687
1310231674829,16.9999
1310231734829,16.9530
1310231794829,16.9686
1310231854829,17.0046
1310231914829,17.0123
1310231974829,17.0012
1310232034829,16.9978
1310232094829,17.0511
1310232154829,17.0687
1310232214829,17.0311
1310232274829,17.0623
1310232334829,17.0113
1310232394829,16.9894
1310232454829,17.0246
1310232514829,17.0078
1310232574829,17.0356
1310232634829,17.0272
1310232694829,17.0490
1310232754829,17.0423
1310232814829,16.9852
1310232874829,16.9783
1310232934829,16.9875
1310232994829,17.0291
1310233054829,17.0945
1310233114829,17.0078
1310233174829,17.0033
1310233234829,17.0339
1310233294829,17.0689
1310233354829,17.0168
1310233414829,17.0859
1310233474829,17.0741
1310233534829,16.9831
1310233594829,17.0153
1310233654829,16.9812
1310233714829,16.9982
1310233774829,16.9722
1310233834829,17.0395
1310233894829,17.0047
1310233954829,16.9715
1310234014829,16.9971
1310234074829,17.0528
1310234134829,16.9866
1310234194829,16.9605
1310234254829,17.0074
1310234314829,17.0041
1310234374829,16.9652
1310234434839,16.9390
1310234494839,16.9823
1310234554839,16.9579
1310234614839,16.9695
1310234674839,16.9841
1310234734839,16.9979
1310234794839,16.9919
1310234854839,16.9355
1310234914839,16.9623
1310234974839,16.9477